Weather History for Cincinnati, OH

Change the Weather History Date:

Monday, August 4, 2014

  Actual Average Record
Temperature  
Mean Temperature 74 °F -  
Max Temperature 88 °F 85 °F 99 °F (2010)
Min Temperature 60 °F 65 °F 33 °F (1996)
Cooling Degree Days 8    
Growing Degree Days 24 (Base 50)    
Moisture  
Dew Point 60 °F    
Average Humidity 83    
Maximum Humidity 100    
Minimum Humidity 32    
Precipitation  
Precipitation 0.00 in - - ()
Sea Level Pressure  
Sea Level Pressure 30.11 in    
Wind  
Wind Speed 0 mph (NE)    
Max Wind Speed 6 mph    
Max Gust Speed -    
Visibility 4 miles    
Events Fog    
Averages and records for this station are not official NWS values.
T = Trace of Precipitation, MM = Missing Value Source: NWS Daily Summary

Daily Weather History Graph

Daily Weather History Graph

Search for Another Location

Airport:

Trip Planner

Search our weather history database for the weather conditions in past years. The results will help you decide how hot, cold, wet, or windy it might be!

Date:

Astronomy

Aug. 04, 2014 Rise Set
Actual Time 6:40 AM EDT 8:46 PM EDT
Civil Twilight 6:11 AM EDT 9:15 PM EDT
Nautical Twilight 5:35 AM EDT 9:51 PM EDT
Astronomical Twilight 4:55 AM EDT 10:30 PM EDT
Moon 2:57 PM EDT (8/4) 12:46 AM EDT (8/4)
Length of Visible Light 15h 04m
Length of Day
14h 05m
First Quarter, 57% of the Moon is Illuminated
Aug 4
First Quarter
Aug 10
Full
Aug 17
Last Quarter
Aug 25
New
Sep 2
First Quarter

Hourly Weather History & Observations

Time (EDT) Temp. Heat Index Dew Point Humidity Pressure Visibility Wind Dir Wind Speed Gust Speed Precip Events Conditions
12:53 AM 64.4 °F - 62.6 °F 94% 30.13 in 4.0 mi Calm Calm - N/A   Clear
1:11 AM 63.0 °F - 62.1 °F 97% 30.13 in 1.8 mi Calm Calm - N/A   Clear
1:27 AM 63.0 °F - 63.0 °F 100% 30.13 in 3.0 mi Calm Calm - N/A   Clear
1:53 AM 60.8 °F - 60.8 °F 100% 30.12 in 1.0 mi Calm Calm - N/A   Clear
2:02 AM 63.0 °F - 62.1 °F 97% 30.12 in 3.0 mi Calm Calm - N/A   Clear
2:18 AM 63.0 °F - 62.1 °F 97% 30.12 in 1.5 mi Calm Calm - N/A   Clear
2:32 AM 61.0 °F - 61.0 °F 100% 30.12 in 1.8 mi Calm Calm - N/A   Partly Cloudy
2:39 AM 61.0 °F - 60.1 °F 97% 30.12 in 0.2 mi Calm Calm - N/A Fog Fog
2:53 AM 62.1 °F - 61.0 °F 96% 30.10 in 1.0 mi Calm Calm - N/A   Mist
3:03 AM 61.0 °F - 61.0 °F 100% 30.11 in 1.2 mi Calm Calm - N/A   Partly Cloudy
3:18 AM 61.0 °F - 61.0 °F 100% 30.11 in 3.0 mi Calm Calm - N/A   Clear
3:20 AM 61.0 °F - 60.1 °F 97% 30.11 in 2.0 mi Calm Calm - N/A   Partly Cloudy
3:24 AM 61.0 °F - 61.0 °F 100% 30.11 in 1.0 mi Calm Calm - N/A   Mist
3:30 AM 62.1 °F - 61.0 °F 96% 30.11 in 1.0 mi Calm Calm - N/A   Clear
3:41 AM 61.0 °F - 61.0 °F 100% 30.11 in 2.0 mi Calm Calm - N/A   Partly Cloudy
3:51 AM 60.8 °F - 60.8 °F 100% 30.11 in 1.8 mi ENE 3.5 mph - N/A   Scattered Clouds
3:53 AM 61.0 °F - 60.1 °F 97% 30.10 in 1.8 mi Calm Calm - N/A   Scattered Clouds
3:59 AM 60.8 °F - 60.8 °F 100% 30.11 in 0.8 mi Calm Calm - N/A   Mist
4:08 AM 62.1 °F - 61.0 °F 96% 30.11 in 2.5 mi Calm Calm - N/A   Mostly Cloudy
4:15 AM 62.1 °F - 61.0 °F 96% 30.11 in 3.0 mi Calm Calm - N/A   Mostly Cloudy
4:23 AM 63.0 °F - 62.1 °F 97% 30.11 in 2.5 mi Calm Calm - N/A   Mostly Cloudy
4:27 AM 63.0 °F - 62.1 °F 97% 30.11 in 3.0 mi Calm Calm - N/A   Overcast
4:38 AM 61.0 °F - 61.0 °F 100% 30.12 in 1.5 mi Calm Calm - N/A   Overcast
4:53 AM 61.0 °F - 60.1 °F 97% 30.11 in 2.5 mi Calm Calm - N/A   Mostly Cloudy
5:01 AM 61.0 °F - 60.1 °F 97% 30.12 in 3.0 mi Calm Calm - N/A   Scattered Clouds
5:06 AM 61.0 °F - 60.1 °F 97% 30.12 in 0.8 mi Calm Calm - N/A   Mist
5:15 AM 61.0 °F - 61.0 °F 100% 30.12 in 0.2 mi Calm Calm - N/A Fog Fog
5:53 AM 61.0 °F - 61.0 °F 100% 30.12 in 0.2 mi Calm Calm - N/A Fog Fog
6:53 AM 62.1 °F - 62.1 °F 100% 30.13 in 0.2 mi Calm Calm - N/A Fog Fog
7:53 AM 61.0 °F - 61.0 °F 100% 30.14 in 0.2 mi Calm Calm - N/A Fog Fog
8:23 AM 63.0 °F - 63.0 °F 100% 30.15 in 0.8 mi Calm Calm - N/A   Overcast
8:38 AM 63.0 °F - 63.0 °F 100% 30.15 in 2.0 mi Calm Calm - N/A   Mostly Cloudy
8:53 AM 64.0 °F - 64.0 °F 100% 30.15 in 3.0 mi Calm Calm - N/A   Scattered Clouds
9:53 AM 72.0 °F - 61.0 °F 68% 30.15 in 7.0 mi Calm Calm - N/A   Clear
10:53 AM 78.1 °F - 63.0 °F 60% 30.14 in 10.0 mi East 3.5 mph - N/A   Clear
11:53 AM 82.9 °F 82.8 °F 59.0 °F 44% 30.14 in 10.0 mi Variable 3.5 mph - N/A   Clear
12:53 PM 84.0 °F 83.5 °F 57.9 °F 41% 30.13 in 10.0 mi Variable 4.6 mph - N/A   Clear
1:26 PM 84.2 °F 83.0 °F 55.4 °F 37% 30.13 in 10.0 mi Variable 3.5 mph - N/A   Clear
1:53 PM 84.0 °F 83.0 °F 55.9 °F 38% 30.12 in 10.0 mi Variable 5.8 mph - N/A   Clear
2:53 PM 84.9 °F 83.6 °F 55.0 °F 36% 30.09 in 10.0 mi Variable 3.5 mph - N/A   Clear
3:53 PM 86.0 °F 84.5 °F 55.0 °F 35% 30.07 in 10.0 mi Calm Calm - N/A   Clear
4:53 PM 87.1 °F 85.1 °F 54.0 °F 32% 30.06 in 10.0 mi North 4.6 mph - N/A   Clear
5:53 PM 87.1 °F 85.1 °F 54.0 °F 32% 30.05 in 10.0 mi Calm Calm - N/A   Clear
6:53 PM 84.9 °F 83.6 °F 55.0 °F 36% 30.04 in 10.0 mi ENE 3.5 mph - N/A   Clear
7:53 PM 79.0 °F - 63.0 °F 58% 30.05 in 10.0 mi Calm Calm - N/A   Clear
8:53 PM 72.0 °F - 61.0 °F 68% 30.06 in 10.0 mi Calm Calm - N/A   Clear
9:53 PM 68.0 °F - 61.0 °F 78% 30.06 in 10.0 mi Calm Calm - N/A   Clear
10:53 PM 66.0 °F - 61.0 °F 84% 30.08 in 10.0 mi Calm Calm - N/A   Clear
11:53 PM 64.0 °F - 61.0 °F 90% 30.08 in 10.0 mi Calm Calm - N/A   Clear